Location: Boone Canyon
(38.3180°N, 119.2504°W)
Time: 18:17:14
(UTC+00:00)

NOSS 3-3 (C) - Pass Details

Date: 18 September 2020
Orbit: 837 x 1375 km, 63.4° (Epoch: 13 October)

Event Time Altitude Azimuth Distance (km) Brightness Sun altitude
Exits shadow 12:15:16 26° 232° (SW) 1,655 4.7 -17.5°
Maximum altitude 12:18:34 64° 306° (NW) 1,009 3.9 -16.9°
Drops below altitude 10° 12:24:55 10° 28° (NNE) 2,774 7.0 -15.7°
Sets 12:27:43 0° 31° (NNE) 3,810 7.8 -15.2°
